TimeCST,TemperatureF,Dew PointF,Humidity,Sea Level PressureIn,VisibilityMPH,Wind Direction,Wind SpeedMPH,Gust SpeedMPH,PrecipitationIn,Events,Conditions,WindDirDegrees,DateUTC
12:53 AM,41.0,35.1,79,30.33,10.0,NNW,10.4,-,N/A,,Clear,330,2013-01-18 06:53:00
1:53 AM,39.9,35.1,83,30.35,10.0,NNW,10.4,-,N/A,,Clear,330,2013-01-18 07:53:00
2:53 AM,39.0,34.0,82,30.37,10.0,NNW,6.9,-,N/A,,Clear,340,2013-01-18 08:53:00
3:53 AM,39.0,34.0,82,30.40,10.0,NW,6.9,-,N/A,,Clear,320,2013-01-18 09:53:00
4:53 AM,37.9,34.0,86,30.42,10.0,NNW,6.9,-,N/A,,Clear,330,2013-01-18 10:53:00
5:53 AM,39.0,34.0,82,30.43,10.0,North,10.4,-,N/A,,Clear,350,2013-01-18 11:53:00
6:53 AM,37.9,33.1,83,30.46,10.0,North,10.4,-,N/A,,Clear,360,2013-01-18 12:53:00
7:53 AM,39.9,34.0,79,30.48,10.0,North,10.4,-,N/A,,Clear,350,2013-01-18 13:53:00
8:53 AM,44.1,33.1,65,30.50,10.0,NNE,11.5,19.6,N/A,,Clear,20,2013-01-18 14:53:00
9:53 AM,48.0,34.0,58,30.51,10.0,NNE,11.5,-,N/A,,Clear,20,2013-01-18 15:53:00
10:53 AM,52.0,35.1,53,30.50,10.0,NNE,9.2,16.1,N/A,,Clear,20,2013-01-18 16:53:00
11:53 AM,55.0,35.1,47,30.47,10.0,ENE,8.1,-,N/A,,Clear,70,2013-01-18 17:53:00
12:53 PM,57.0,34.0,42,30.43,10.0,Variable,3.5,-,N/A,,Clear,0,2013-01-18 18:53:00
1:53 PM,59.0,32.0,36,30.40,10.0,North,10.4,-,N/A,,Clear,360,2013-01-18 19:53:00
2:53 PM,60.1,33.1,36,30.39,10.0,NNE,12.7,-,N/A,,Clear,20,2013-01-18 20:53:00
3:53 PM,60.1,30.9,33,30.39,10.0,NNE,5.8,-,N/A,,Clear,30,2013-01-18 21:53:00
4:53 PM,57.0,33.1,40,30.40,10.0,NE,5.8,-,N/A,,Clear,40,2013-01-18 22:53:00
5:53 PM,52.0,35.1,53,30.41,10.0,Calm,Calm,-,N/A,,Clear,0,2013-01-18 23:53:00
6:53 PM,48.0,37.0,66,30.43,10.0,NNE,3.5,-,N/A,,Clear,30,2013-01-19 00:53:00
7:53 PM,46.0,37.0,71,30.43,10.0,Calm,Calm,-,N/A,,Clear,0,2013-01-19 01:53:00
8:53 PM,44.1,37.9,79,30.43,10.0,NNE,3.5,-,N/A,,Clear,20,2013-01-19 02:53:00
9:53 PM,44.1,37.0,76,30.41,10.0,NNE,3.5,-,N/A,,Clear,30,2013-01-19 03:53:00
10:53 PM,44.1,37.0,76,30.40,10.0,NE,4.6,-,N/A,,Clear,40,2013-01-19 04:53:00
11:53 PM,45.0,36.0,71,30.39,10.0,NE,4.6,-,N/A,,Clear,50,2013-01-19 05:53:00